[[{"header":{"parameterUnit":"m.s-1","parameterCategory":2,"la1":30.2991,"la2":30.254,"lo1":-89.0895,"lo2":-89.0444,"dy":0.0017,"dx":0.0017,"nx":28,"ny":28,"refTime":"2024-04-04T21:00:00:Z","depth":"0","parameterNumber":2,"parameterNumberName":"U-component_of_CURRENTS"},"data":[0,0,0,0,0,0,0,0,0,0,0,0,0,0,0,0,0,0,0,0,0,0,0,0,0,0,0,0,0,0,0,0,0,0,0,0,0,0,0,0,0,0,0,0,0,0,0,0,0,0,0,0,0,0,0,0,0,0,-0.2282,-0.2283,0,-0.2306,-0.2306,-0.2306,-0.2285,-0.2285,-0.2284,-0.2284,-0.2236,-0.2235,-0.2234,0,0,0,0,0,0,0,0,0,0,0,0,0,-0.217,-0.2172,-0.2282,-0.2283,-0.2284,-0.2306,-0.2306,-0.2306,-0.2285,-0.2285,-0.2284,-0.2284,-0.2236,-0.2235,-0.2234,0,0,0,0,0,0,0,0,0,0,0,0,0,-0.2204,-0.2172,-0.2282,-0.228,-0.228,-0.2306,-0.2306,-0.2306,-0.2285,-0.2285,-0.2284,-0.2284,-0.2237,-0.2235,-0.2234,-0.2237,0,0,-0.223,-0.2229,0,0,0,0,0,0,0,0,-0.2202,-0.2207,-0.228,-0.228,-0.2281,-0.2296,-0.2249,-0.2281,-0.2285,-0.2278,-0.2284,-0.2283,-0.2253,-0.2251,-0.225,-0.2235,-0.2233,-0.223,-0.2229,-0.2228,-0.2228,0,0,0,0,0,0,0,-0.22,-0.2206,-0.2287,-0.2281,-0.2281,-0.2261,-0.2265,-0.2254,-0.2264,-0.2279,-0.2279,-0.2289,-0.2252,-0.2252,-0.2249,-0.2232,-0.223,-0.2229,-0.2228,-0.2227,-0.2246,-0.2248,0,0,0,0,0,0,-0.2211,-0.2204,-0.2286,-0.2288,-0.2245,-0.2264,-0.2268,-0.2288,-0.2265,-0.2263,-0.229,-0.2288,-0.2254,-0.225,-0.2247,-0.2274,-0.2228,-0.2227,-0.2226,-0.2245,-0.2247,-0.2248,0,0,0,0,0,0,-0.2208,-0.2218,-0.2285,-0.2249,-0.2257,-0.2267,-0.2289,-0.2289,-0.2289,-0.2275,-0.2271,-0.2291,-0.2254,-0.2249,-0.2256,-0.2271,-0.2227,-0.2225,-0.2244,-0.2246,-0.2247,-0.2312,0,0,0,0,0,0,-0.2205,-0.2217,-0.2221,-0.2251,-0.226,-0.2313,-0.229,-0.229,-0.2299,-0.2297,-0.2275,-0.227,-0.2253,-0.2258,-0.2254,-0.2268,-0.2224,-0.2242,-0.2244,-0.2247,-0.2308,-0.2316,-0.2322,0,0,0,0,0,-0.2201,-0.2223,-0.2222,-0.2231,-0.2271,-0.2315,-0.2317,-0.2317,-0.23,-0.2311,-0.23,-0.227,-0.2271,-0.2258,-0.2254,-0.2267,-0.2241,-0.2244,-0.2247,-0.2305,-0.2314,-0.2322,0,0,0,0,0,0,-0.2178,-0.2225,-0.2223,-0.2258,-0.2287,-0.2313,-0.2321,-0.2321,-0.2321,-0.2312,-0.2288,-0.2284,-0.2296,-0.2276,-0.2263,-0.2282,-0.225,-0.2252,-0.2296,-0.2305,-0.2312,-0.2312,-0.2223,0,0,0,0,0,-0.2176,-0.2201,-0.2243,-0.2267,-0.2284,-0.2299,-0.231,-0.2318,-0.2329,-0.2327,-0.2316,-0.2304,-0.2306,-0.2301,-0.2298,-0.2305,-0.2298,-0.2312,-0.2319,-0.2325,-0.2324,-0.2325,-0.2331,-0.2258,-0.2258,-0.2258,0,0,-0.217,-0.2201,-0.2211,-0.2263,-0.2278,-0.2316,-0.2303,-0.2333,-0.2357,-0.2322,-0.2337,-0.2329,-0.2315,-0.2331,-0.2334,-0.2315,-0.235,-0.2329,-0.2334,-0.2329,-0.2328,-0.2335,-0.2342,-0.226,-0.226,-0.2259,0,0,-0.2183,-0.2203,-0.2229,-0.2263,-0.2304,-0.2322,-0.2335,-0.2367,-0.2371,-0.2394,-0.2378,-0.2383,-0.2376,-0.2379,-0.2376,-0.242,-0.2391,-0.2415,-0.2446,-0.2447,-0.2453,-0.2458,-0.249,-0.2497,-0.2415,-0.2415,-0.2415,0,-0.2167,-0.2211,-0.2242,-0.2285,-0.231,-0.233,-0.2365,-0.2386,-0.2414,-0.242,-0.2406,-0.2413,-0.2401,-0.2424,-0.2442,-0.2435,-0.2438,-0.2414,-0.2456,-0.246,-0.2464,-0.2495,-0.2502,-0.2418,-0.2418,-0.2418,-0.2417,0,-0.2211,-0.224,-0.2262,-0.2319,-0.2355,-0.2388,-0.2434,-0.2456,-0.2457,-0.2471,-0.2491,-0.2484,-0.2482,-0.2488,-0.2476,-0.2503,-0.25,-0.2468,-0.2432,-0.2475,-0.2506,-0.2512,-0.2423,-0.2422,-0.2421,-0.242,0,0,-0.2173,-0.2269,-0.227,-0.2301,-0.2371,-0.2409,-0.2456,-0.25,-0.2529,-0.2539,-0.2567,-0.2571,-0.2556,-0.2553,-0.2543,-0.2548,-0.259,-0.2521,-0.2519,-0.255,-0.2617,-0.2521,-0.2518,-0.256,-0.2561,-0.2562,-0.2639,0,-0.2181,-0.2254,-0.2304,-0.2366,-0.2404,-0.2451,-0.2499,-0.2545,-0.2571,-0.2609,-0.2603,-0.2623,-0.2586,-0.2588,-0.2589,-0.2589,-0.2603,-0.2574,-0.2572,-0.2573,-0.2478,-0.252,-0.2418,-0.2468,-0.2645,-0.2646,-0.2646,0,-0.2191,-0.2241,-0.2298,-0.2389,-0.2411,-0.245,-0.2523,-0.2572,-0.2633,-0.2651,-0.2665,-0.2672,-0.269,-0.2648,-0.2661,-0.2642,-0.2634,-0.2632,-0.2634,-0.2519,-0.2485,-0.2447,-0.2472,-0.2454,-0.2655,-0.2654,-0.2654,0,-0.2137,-0.2231,-0.2269,-0.2302,-0.2412,-0.2437,-0.2485,-0.2562,-0.2613,-0.2669,-0.2706,-0.2722,-0.2732,-0.2721,-0.2701,-0.2688,-0.2716,-0.2696,-0.2612,-0.2607,-0.2504,-0.2487,-0.2501,-0.2705,-0.2705,-0.2705,-0.2705,0,-0.2118,-0.215,-0.2242,-0.2268,-0.2321,-0.2405,-0.2469,-0.2519,-0.2609,-0.2661,-0.2707,-0.2734,-0.2745,-0.276,-0.2735,-0.2684,-0.2736,-0.2625,-0.2612,-0.2527,-0.2512,-0.2475,-0.2488,-0.2708,-0.2707,-0.2707,-0.2706,0,-0.2043,-0.2111,-0.2156,-0.2256,-0.2294,-0.2318,-0.2451,-0.2511,-0.2589,-0.266,-0.2679,-0.2756,-0.2741,-0.2757,-0.2752,-0.2717,-0.2638,-0.2656,-0.2568,-0.254,-0.2414,-0.2433,-0.2403,-0.2346,-0.2589,-0.2587,-0.2586,0,-0.2005,-0.202,-0.2117,-0.2157,-0.2195,-0.2269,-0.234,-0.2461,-0.2532,-0.2646,-0.2674,-0.2708,-0.2685,-0.2668,-0.2612,-0.2573,-0.2549,-0.2474,-0.241,-0.2394,-0.2409,-0.2404,-0.2358,-0.2335,-0.2332,-0.2329,-0.2326,0,-0.1918,-0.1945,-0.1998,-0.2064,-0.2131,-0.2208,-0.2306,-0.2354,-0.2488,-0.254,-0.2557,-0.2547,-0.2555,-0.2457,-0.2432,-0.2383,-0.2399,-0.2407,-0.2413,-0.2222,-0.2198,-0.2139,-0.2332,-0.23,-0.2302,-0.2304,-0.2306,-0.2307,-0.1832,-0.1839,-0.1903,-0.1958,-0.204,-0.2073,-0.2072,-0.219,-0.2225,-0.2258,-0.2358,-0.2326,-0.2343,-0.226,-0.2235,-0.2153,-0.2182,-0.2092,-0.2131,-0.2138,-0.2026,-0.2161,-0.2081,-0.2082,-0.2083,-0.2085,-0.2085,0,-0.1702,-0.1744,-0.1802,-0.1848,-0.1866,-0.1942,-0.2009,-0.1977,-0.1936,-0.2047,-0.2037,-0.207,-0.2008,-0.2047,-0.2011,-0.1938,-0.1897,-0.1879,-0.1874,-0.1848,-0.1987,-0.1913,-0.1765,-0.1765,-0.1765,-0.1765,-0.1765,-0.1765,-0.1641,-0.1643,-0.1678,-0.1646,-0.1676,-0.1612,-0.1586,-0.1564,-0.1605,-0.1599,-0.1675,-0.1803,-0.186,-0.2014,-0.1945,-0.185,-0.1808,-0.1712,-0.1751,-0.1882,-0.1906,-0.1928,-0.1862,-0.1704,-0.1704,-0.154,-0.1539,-0.1538]},{"header":{"parameterUnit":"m.s-1","parameterCategory":2,"la1":30.2991,"la2":30.254,"lo1":-89.0895,"lo2":-89.0444,"dy":0.0017,"dx":0.0017,"nx":28,"ny":28,"refTime":"2024-04-04T21:00:00:Z","depth":"0","parameterNumber":3,"parameterNumberName":"V-component_of_CURRENTS"},"data":[0,0,0,0,0,0,0,0,0,0,0,0,0,0,0,0,0,0,0,0,0,0,0,0,0,0,0,0,0,0,0,0,0,0,0,0,0,0,0,0,0,0,0,0,0,0,0,0,0,0,0,0,0,0,0,0,0,0,-0.022,-0.022,0,-0.0146,-0.0145,-0.0144,-0.0107,-0.0107,-0.0107,-0.0107,-0.0005,-0.0002,0.0001,0,0,0,0,0,0,0,0,0,0,0,0,0,-0.0248,-0.0248,-0.022,-0.0219,-0.0219,-0.0146,-0.0145,-0.0144,-0.0106,-0.0107,-0.0107,-0.0107,-0.0006,-0.0003,0.0001,0,0,0,0,0,0,0,0,0,0,0,0,0,-0.0209,-0.0248,-0.022,-0.0193,-0.0191,-0.0147,-0.0145,-0.0144,-0.0106,-0.0107,-0.0107,-0.0107,-0.0007,-0.0003,0.0001,0.0035,0,0,0.0015,0.0017,0,0,0,0,0,0,0,0,-0.0211,-0.0207,-0.0198,-0.0195,-0.0192,-0.0138,-0.0117,-0.0083,-0.0106,-0.0135,-0.0107,-0.0108,-0.0049,-0.0041,-0.0023,0.004,0.0044,0.0015,0.0018,0.002,0.0021,0,0,0,0,0,0,0,-0.0214,-0.021,-0.0188,-0.0197,-0.0194,-0.0157,-0.0153,-0.011,-0.0088,-0.0133,-0.0131,-0.0127,-0.0046,-0.0027,-0.002,0.0046,0.0015,0.0019,0.0022,0.0023,0.0152,0.0153,0,0,0,0,0,0,-0.0232,-0.0213,-0.0191,-0.0186,-0.0205,-0.0157,-0.0152,-0.0153,-0.0089,-0.0081,-0.0127,-0.0125,-0.0034,-0.0025,-0.0016,0.0029,0.002,0.0024,0.0026,0.0151,0.0152,0.0153,0,0,0,0,0,0,-0.0233,-0.0231,-0.0194,-0.0199,-0.0193,-0.0157,-0.0158,-0.0151,-0.0135,-0.0085,-0.0076,-0.0119,-0.0034,-0.0022,0.0024,0.0033,0.0026,0.003,0.015,0.0152,0.0153,0.0119,0,0,0,0,0,0,-0.0234,-0.0232,-0.0238,-0.0201,-0.0193,-0.0174,-0.0158,-0.015,-0.0133,-0.0131,-0.0075,-0.0066,-0.0034,0.0017,0.0028,0.0039,0.0033,0.0149,0.0151,0.0152,0.0119,0.0119,0.0119,0,0,0,0,0,-0.0236,-0.0251,-0.0239,-0.0236,-0.0204,-0.0174,-0.0166,-0.0139,-0.0133,-0.0126,-0.0084,-0.0068,0.0034,0.0022,0.0034,0.0047,0.0149,0.0151,0.0152,0.0119,0.0119,0.0119,0,0,0,0,0,0,-0.0266,-0.0247,-0.0234,-0.0243,-0.0211,-0.0169,-0.0165,-0.0143,-0.0104,-0.0104,-0.0055,-0.0042,0.0002,0.0031,0.0016,0.0089,0.0094,0.0098,0.0064,0.0065,0.0064,0.005,0.0037,0,0,0,0,0,-0.0276,-0.0281,-0.0249,-0.0252,-0.0243,-0.0203,-0.0188,-0.0168,-0.013,-0.0114,-0.0072,-0.0026,0.0021,0.0046,0.0089,0.0131,0.0157,0.0147,0.0147,0.0147,0.0144,0.0193,0.0196,0.0159,0.0159,0.0159,0,0,-0.0288,-0.0278,-0.028,-0.0258,-0.0235,-0.0224,-0.0194,-0.0178,-0.0158,-0.0108,-0.0071,-0.0026,0.0032,0.0078,0.01,0.0103,0.0172,0.0149,0.0148,0.0146,0.0195,0.0198,0.0201,0.016,0.016,0.016,0,0,-0.0316,-0.0306,-0.032,-0.0296,-0.0269,-0.0244,-0.0242,-0.0198,-0.017,-0.0127,-0.0084,-0.0032,0.0033,0.0082,0.0114,0.014,0.0167,0.0151,0.0141,0.0188,0.0191,0.0194,0.0229,0.0235,0.0153,0.0153,0.0153,0,-0.033,-0.0341,-0.0316,-0.0316,-0.0301,-0.0258,-0.0257,-0.022,-0.0162,-0.0131,-0.0124,-0.0009,0.0037,0.0106,0.0115,0.014,0.0163,0.0134,0.0186,0.019,0.0194,0.0228,0.0236,0.0151,0.0151,0.0152,0.0152,0,-0.0362,-0.0365,-0.037,-0.0358,-0.0337,-0.0329,-0.0279,-0.0247,-0.0211,-0.0166,-0.0093,-0.0023,0.0044,0.007,0.0101,0.0157,0.0164,0.0177,0.0181,0.0195,0.0231,0.0239,0.0149,0.015,0.015,0.0151,0,0,-0.0409,-0.0398,-0.04,-0.04,-0.0357,-0.0348,-0.0308,-0.0256,-0.0228,-0.0161,-0.0115,-0.0023,0.0018,0.0057,0.0109,0.0153,0.0201,0.017,0.0173,0.0193,0.0294,0.031,0.0321,0.0218,0.022,0.0221,0.0307,0,-0.0441,-0.0465,-0.0438,-0.0445,-0.0451,-0.0388,-0.0353,-0.0294,-0.0237,-0.0181,-0.009,-0.0033,0.0013,0.0042,0.0098,0.0177,0.0222,0.0176,0.0287,0.029,0.0294,0.0331,0.0346,0.0425,0.0315,0.0317,0.0318,0,-0.0483,-0.0493,-0.0514,-0.049,-0.0484,-0.0472,-0.0411,-0.0372,-0.0271,-0.0223,-0.0142,-0.0075,0.0019,0.004,0.0185,0.015,0.0217,0.0273,0.0278,0.031,0.0322,0.0396,0.0445,0.0588,0.0331,0.033,0.0329,0,-0.0545,-0.0545,-0.0567,-0.0558,-0.0522,-0.0504,-0.0475,-0.0385,-0.0353,-0.0253,-0.0226,-0.0097,-0.0043,0.0065,0.0195,0.0187,0.0339,0.0345,0.0424,0.0426,0.047,0.0473,0.0662,0.0437,0.0436,0.0436,0.0436,0,-0.0594,-0.061,-0.0601,-0.0612,-0.0623,-0.0566,-0.0553,-0.0494,-0.0417,-0.0384,-0.0261,-0.0213,-0.0038,0.0076,0.0188,0.0338,0.034,0.0431,0.0456,0.0459,0.046,0.0611,0.0668,0.0439,0.0439,0.0438,0.0438,0,-0.0654,-0.0649,-0.0678,-0.0661,-0.0657,-0.0665,-0.0628,-0.0617,-0.0528,-0.0482,-0.0456,-0.0298,-0.0147,0.0028,0.0214,0.0323,0.0545,0.0512,0.05,0.0522,0.0718,0.077,0.0951,0.1009,0.0614,0.0615,0.0616,0,-0.0684,-0.0709,-0.0733,-0.0765,-0.0761,-0.0765,-0.0765,-0.0684,-0.0665,-0.0535,-0.0521,-0.036,-0.024,0.0047,0.0268,0.0484,0.0587,0.0624,0.0618,0.0745,0.0822,0.0846,0.0883,0.0665,0.0667,0.0668,0.0668,0,-0.074,-0.0754,-0.0786,-0.0858,-0.0883,-0.0901,-0.0888,-0.0889,-0.0782,-0.0723,-0.0616,-0.0507,-0.0212,0.0063,0.036,0.0483,0.0721,0.0649,0.0799,0.0897,0.0919,0.098,0.0582,0.0677,0.0676,0.0676,0.0675,0.0675,-0.0778,-0.0827,-0.0885,-0.0948,-0.0987,-0.1018,-0.1023,-0.0996,-0.0954,-0.0831,-0.0712,-0.0517,-0.0084,0.0335,0.0495,0.0841,0.0791,0.0937,0.0994,0.1009,0.1061,0.0672,0.078,0.078,0.078,0.078,0.0779,0,-0.0823,-0.0888,-0.097,-0.1042,-0.11,-0.1089,-0.1088,-0.107,-0.102,-0.0883,-0.0749,-0.029,0.0128,0.0527,0.1029,0.1203,0.1224,0.1279,0.1337,0.136,0.1045,0.1044,0.1192,0.1192,0.1192,0.1192,0.1192,0.1192,-0.0851,-0.0947,-0.1,-0.1119,-0.1163,-0.119,-0.1182,-0.1139,-0.1036,-0.0807,-0.0548,-0.0336,0.0268,0.1113,0.1569,0.1583,0.1723,0.1682,0.1761,0.1573,0.1545,0.1519,0.1535,0.1784,0.1784,0.2048,0.2051,0.2053]}],[{"header":{"parameterUnit":"m.s-1","parameterCategory":2,"la1":30.2991,"la2":30.254,"lo1":-89.0895,"lo2":-89.0444,"dy":0.0017,"dx":0.0017,"nx":28,"ny":28,"refTime":"2024-04-04T21:00:00:Z","depth":"2","parameterNumber":2,"parameterNumberName":"U-component_of_CURRENTS"},"data":[0,0,0,0,0,0,0,0,0,0,0,0,0,0,0,0,0,0,0,0,0,0,0,0,0,0,0,0,0,0,0,0,0,0,0,0,0,0,0,0,0,0,0,0,0,0,0,0,0,0,0,0,0,0,0,0,0,0,-0.2107,-0.2107,0,-0.2124,-0.2123,-0.2123,-0.2103,-0.2103,-0.2103,-0.2103,-0.2051,-0.205,-0.2049,0,0,0,0,0,0,0,0,0,0,0,0,0,-0.1967,-0.197,-0.2106,-0.2107,-0.2108,-0.2124,-0.2123,-0.2123,-0.2103,-0.2103,-0.2103,-0.2103,-0.2052,-0.205,-0.2049,0,0,0,0,0,0,0,0,0,0,0,0,0,-0.2004,-0.1971,-0.2106,-0.2105,-0.2106,-0.2124,-0.2123,-0.2123,-0.2103,-0.2103,-0.2103,-0.2103,-0.2052,-0.205,-0.2049,-0.2039,0,0,-0.2043,-0.2042,0,0,0,0,0,0,0,0,-0.2002,-0.2008,-0.2105,-0.2106,-0.2106,-0.2117,-0.2056,-0.2094,-0.2103,-0.2097,-0.2103,-0.2103,-0.2072,-0.2068,-0.2063,-0.2037,-0.2035,-0.2042,-0.2041,-0.204,-0.204,0,0,0,0,0,0,0,-0.2,-0.2007,-0.2106,-0.2106,-0.2107,-0.2074,-0.2079,-0.2062,-0.2078,-0.2098,-0.2098,-0.2111,-0.2071,-0.2065,-0.2061,-0.2034,-0.2042,-0.2041,-0.204,-0.2039,-0.2062,-0.2063,0,0,0,0,0,0,-0.2017,-0.2006,-0.2106,-0.2107,-0.2061,-0.2078,-0.2083,-0.2108,-0.208,-0.2078,-0.2111,-0.211,-0.2068,-0.2064,-0.2059,-0.2093,-0.204,-0.2039,-0.2038,-0.206,-0.2062,-0.2064,0,0,0,0,0,0,-0.2014,-0.2026,-0.2105,-0.2061,-0.207,-0.2082,-0.2109,-0.2109,-0.2112,-0.2092,-0.2088,-0.2117,-0.2068,-0.2062,-0.2074,-0.2089,-0.2038,-0.2036,-0.2058,-0.2061,-0.2063,-0.213,0,0,0,0,0,0,-0.201,-0.2025,-0.2039,-0.2063,-0.2073,-0.2134,-0.211,-0.2109,-0.2123,-0.2122,-0.2096,-0.209,-0.2067,-0.2077,-0.2072,-0.2085,-0.2035,-0.2056,-0.2059,-0.2062,-0.2126,-0.2135,-0.2143,0,0,0,0,0,-0.2005,-0.2036,-0.2039,-0.2051,-0.2095,-0.2136,-0.2137,-0.2138,-0.2124,-0.2137,-0.2128,-0.2092,-0.2094,-0.2077,-0.2071,-0.2084,-0.2054,-0.2058,-0.2062,-0.2122,-0.2133,-0.2142,0,0,0,0,0,0,-0.1974,-0.2038,-0.2042,-0.2088,-0.2116,-0.2135,-0.2144,-0.2146,-0.2147,-0.2141,-0.2113,-0.2108,-0.2125,-0.2102,-0.2084,-0.2104,-0.2068,-0.2071,-0.2116,-0.2126,-0.2134,-0.2132,-0.2033,0,0,0,0,0,-0.1977,-0.202,-0.2066,-0.2098,-0.2115,-0.2127,-0.2139,-0.2148,-0.2159,-0.2158,-0.2145,-0.2133,-0.2134,-0.2129,-0.2124,-0.2131,-0.2121,-0.2137,-0.2146,-0.2153,-0.2149,-0.2153,-0.2161,-0.2077,-0.2077,-0.2077,0,0,-0.1969,-0.2013,-0.2032,-0.2094,-0.2107,-0.2145,-0.2132,-0.2163,-0.2189,-0.2151,-0.217,-0.2162,-0.2146,-0.2162,-0.2165,-0.2143,-0.218,-0.2158,-0.2164,-0.2156,-0.2158,-0.2166,-0.2173,-0.208,-0.2079,-0.2079,0,0,-0.1982,-0.2017,-0.2055,-0.2093,-0.214,-0.2156,-0.2172,-0.2202,-0.2208,-0.2234,-0.2218,-0.2226,-0.2217,-0.2216,-0.2212,-0.2263,-0.2228,-0.226,-0.2292,-0.2297,-0.2304,-0.2309,-0.2338,-0.2345,-0.226,-0.226,-0.226,0,-0.1965,-0.2026,-0.2068,-0.2119,-0.2146,-0.2167,-0.2204,-0.2224,-0.2254,-0.2261,-0.225,-0.2258,-0.2243,-0.2265,-0.2286,-0.2279,-0.2283,-0.2252,-0.2307,-0.2311,-0.2316,-0.2344,-0.2351,-0.2263,-0.2263,-0.2263,-0.2262,0,-0.2014,-0.2058,-0.2083,-0.2157,-0.2194,-0.2229,-0.2275,-0.2299,-0.2303,-0.2318,-0.2341,-0.2333,-0.2331,-0.2337,-0.2323,-0.2353,-0.2349,-0.2319,-0.2277,-0.2328,-0.2355,-0.2361,-0.2269,-0.2267,-0.2266,-0.2265,0,0,-0.1971,-0.2092,-0.2095,-0.2136,-0.2215,-0.2251,-0.23,-0.2345,-0.2375,-0.2389,-0.242,-0.2423,-0.2409,-0.2405,-0.2394,-0.2401,-0.2446,-0.2375,-0.2373,-0.2397,-0.2478,-0.2363,-0.2359,-0.2422,-0.2423,-0.2424,-0.2495,0,-0.198,-0.2075,-0.2134,-0.2205,-0.225,-0.2298,-0.2347,-0.2394,-0.242,-0.246,-0.2454,-0.2476,-0.2439,-0.2442,-0.2445,-0.2446,-0.246,-0.243,-0.243,-0.243,-0.2315,-0.236,-0.218,-0.2217,-0.2501,-0.2502,-0.2503,0,-0.1991,-0.2059,-0.2131,-0.2236,-0.2258,-0.2301,-0.2373,-0.2422,-0.2485,-0.2504,-0.252,-0.2528,-0.2547,-0.2507,-0.2521,-0.2504,-0.2495,-0.2493,-0.2495,-0.236,-0.2324,-0.2206,-0.2217,-0.2513,-0.2512,-0.2511,-0.251,0,-0.193,-0.2046,-0.21,-0.2138,-0.2263,-0.229,-0.234,-0.2416,-0.2464,-0.2524,-0.2561,-0.2581,-0.2592,-0.2584,-0.2558,-0.2551,-0.2573,-0.2561,-0.2458,-0.2452,-0.2281,-0.2256,-0.2572,-0.2572,-0.2572,-0.2572,-0.2571,0,-0.1913,-0.1954,-0.2074,-0.2108,-0.2165,-0.226,-0.2321,-0.2372,-0.2464,-0.2509,-0.2565,-0.2582,-0.2608,-0.2618,-0.2593,-0.2531,-0.2592,-0.247,-0.2454,-0.2303,-0.228,-0.251,-0.2502,-0.2574,-0.2574,-0.2573,-0.2573,0,-0.1829,-0.1917,-0.1977,-0.2098,-0.2139,-0.2165,-0.2299,-0.2355,-0.2441,-0.2503,-0.2523,-0.2601,-0.258,-0.2601,-0.2597,-0.2559,-0.2524,-0.2485,-0.2315,-0.2275,-0.2409,-0.2405,-0.2411,-0.2407,-0.2404,-0.2401,-0.2399,0,-0.1791,-0.1817,-0.1935,-0.1977,-0.2025,-0.2103,-0.2171,-0.23,-0.2363,-0.2475,-0.2494,-0.2529,-0.2493,-0.2471,-0.241,-0.2367,-0.2424,-0.2191,-0.2127,-0.2404,-0.239,-0.239,-0.2389,-0.1961,-0.1955,-0.195,-0.1947,0,-0.1701,-0.1736,-0.1798,-0.1874,-0.1942,-0.2016,-0.2112,-0.2155,-0.229,-0.2342,-0.2348,-0.2332,-0.2327,-0.218,-0.215,-0.2092,-0.2183,-0.2094,-0.2427,-0.2007,-0.1978,-0.1965,-0.1979,-0.1906,-0.191,-0.1913,-0.1915,-0.1917,-0.1612,-0.1617,-0.1694,-0.1752,-0.1836,-0.1864,-0.1861,-0.197,-0.2002,-0.2031,-0.2117,-0.2051,-0.2067,-0.1894,-0.1813,-0.1769,-0.1909,-0.1844,-0.186,-0.188,-0.1792,-0.1756,-0.1629,-0.1632,-0.1634,-0.1635,-0.1637,0,-0.1489,-0.1523,-0.1577,-0.163,-0.1648,-0.173,-0.1788,-0.1755,-0.1713,-0.1785,-0.1771,-0.1606,-0.1532,-0.1552,-0.1431,-0.1425,-0.1429,-0.136,-0.1368,-0.1407,-0.1443,-0.1335,-0.1051,-0.1049,-0.1048,-0.1046,0,0,-0.1433,-0.1429,-0.1454,-0.1419,-0.1455,-0.1403,-0.138,-0.135,-0.1367,-0.1293,-0.1289,-0.1429,-0.1492,-0.1264,-0.1219,-0.1114,-0.1245,-0.1058,-0.1524,-0.157,-0.1604,-0.1715,-0.159,0,0,0,0,0]},{"header":{"parameterUnit":"m.s-1","parameterCategory":2,"la1":30.2991,"la2":30.254,"lo1":-89.0895,"lo2":-89.0444,"dy":0.0017,"dx":0.0017,"nx":28,"ny":28,"refTime":"2024-04-04T21:00:00:Z","depth":"2","parameterNumber":3,"parameterNumberName":"V-component_of_CURRENTS"},"data":[0,0,0,0,0,0,0,0,0,0,0,0,0,0,0,0,0,0,0,0,0,0,0,0,0,0,0,0,0,0,0,0,0,0,0,0,0,0,0,0,0,0,0,0,0,0,0,0,0,0,0,0,0,0,0,0,0,0,-0.0204,-0.0204,0,-0.0134,-0.0133,-0.0132,-0.0096,-0.0096,-0.0096,-0.0097,-0.0001,0.0002,0.0005,0,0,0,0,0,0,0,0,0,0,0,0,0,-0.0226,-0.0226,-0.0204,-0.0203,-0.0203,-0.0134,-0.0133,-0.0132,-0.0096,-0.0096,-0.0096,-0.0097,-0.0001,0.0002,0.0005,0,0,0,0,0,0,0,0,0,0,0,0,0,-0.019,-0.0226,-0.0204,-0.0179,-0.0176,-0.0135,-0.0133,-0.0131,-0.0096,-0.0096,-0.0097,-0.0097,-0.0003,0.0002,0.0006,0.0038,0,0,0.0018,0.002,0,0,0,0,0,0,0,0,-0.0192,-0.0189,-0.0183,-0.0181,-0.0177,-0.0127,-0.0106,-0.0075,-0.0096,-0.0123,-0.0097,-0.0097,-0.0042,-0.0035,-0.0017,0.0042,0.0046,0.0019,0.0021,0.0023,0.0024,0,0,0,0,0,0,0,-0.0195,-0.0191,-0.0173,-0.0183,-0.0179,-0.0144,-0.0139,-0.0099,-0.0079,-0.0121,-0.0119,-0.0115,-0.004,-0.0021,-0.0014,0.0048,0.0019,0.0022,0.0025,0.0026,0.0152,0.0152,0,0,0,0,0,0,-0.0213,-0.0194,-0.0176,-0.0172,-0.0189,-0.0144,-0.0138,-0.014,-0.008,-0.0072,-0.0115,-0.0114,-0.0028,-0.0019,-0.0011,0.0033,0.0023,0.0027,0.0029,0.0151,0.0152,0.0153,0,0,0,0,0,0,-0.0214,-0.0212,-0.0179,-0.0183,-0.0177,-0.0144,-0.0145,-0.0139,-0.0123,-0.0076,-0.0067,-0.0108,-0.0028,-0.0017,0.0028,0.0037,0.0029,0.0032,0.015,0.0151,0.0152,0.012,0,0,0,0,0,0,-0.0215,-0.0213,-0.022,-0.0185,-0.0177,-0.016,-0.0145,-0.0137,-0.0122,-0.012,-0.0067,-0.0058,-0.0027,0.0022,0.0032,0.0042,0.0036,0.0149,0.015,0.0152,0.012,0.012,0.012,0,0,0,0,0,-0.0216,-0.0232,-0.0221,-0.0219,-0.0189,-0.016,-0.0152,-0.0127,-0.0122,-0.0115,-0.0075,-0.006,0.0039,0.0026,0.0038,0.005,0.0148,0.015,0.0152,0.012,0.012,0.012,0,0,0,0,0,0,-0.0245,-0.0229,-0.0217,-0.0227,-0.0196,-0.0155,-0.0153,-0.0131,-0.0093,-0.0093,-0.0047,-0.0035,0.0008,0.0036,0.002,0.0092,0.0095,0.01,0.0067,0.0068,0.0067,0.0052,0.0039,0,0,0,0,0,-0.0255,-0.0262,-0.0231,-0.0236,-0.0228,-0.0188,-0.0175,-0.0155,-0.0119,-0.0103,-0.0063,-0.0018,0.0027,0.0051,0.0092,0.0132,0.0158,0.0148,0.0148,0.0148,0.0145,0.0194,0.0198,0.0159,0.0159,0.0159,0,0,-0.0266,-0.0259,-0.0261,-0.0242,-0.022,-0.0209,-0.0181,-0.0165,-0.0146,-0.0098,-0.0062,-0.0018,0.0038,0.0083,0.0104,0.0106,0.0174,0.015,0.0149,0.0147,0.0196,0.02,0.0203,0.016,0.016,0.016,0,0,-0.0293,-0.0286,-0.0301,-0.0279,-0.0254,-0.0229,-0.0227,-0.0185,-0.0158,-0.0116,-0.0074,-0.0024,0.0039,0.0087,0.0118,0.0145,0.0171,0.0156,0.0145,0.0193,0.0196,0.0199,0.0235,0.0241,0.0156,0.0156,0.0156,0,-0.0307,-0.032,-0.0297,-0.0298,-0.0285,-0.0243,-0.0243,-0.0206,-0.015,-0.012,-0.0113,-0.0001,0.0043,0.0111,0.012,0.0144,0.0168,0.0137,0.0191,0.0195,0.0198,0.0234,0.0242,0.0155,0.0155,0.0155,0.0155,0,-0.0339,-0.0344,-0.035,-0.034,-0.032,-0.0313,-0.0265,-0.0233,-0.0199,-0.0155,-0.0084,-0.0015,0.0051,0.0076,0.0106,0.0162,0.0169,0.0182,0.0185,0.02,0.0237,0.0246,0.0153,0.0154,0.0154,0.0154,0,0,-0.0384,-0.0377,-0.0379,-0.0382,-0.0341,-0.0333,-0.0293,-0.0244,-0.0218,-0.0151,-0.0107,-0.0016,0.0024,0.0062,0.0113,0.0158,0.0207,0.0175,0.0178,0.0199,0.0302,0.0303,0.0313,0.0225,0.0226,0.0227,0.0317,0,-0.0416,-0.0444,-0.0418,-0.0428,-0.0436,-0.0375,-0.034,-0.0284,-0.0227,-0.0173,-0.0083,-0.0028,0.0018,0.0047,0.0103,0.0183,0.0228,0.0181,0.0295,0.0298,0.0288,0.0323,0.029,0.0366,0.0325,0.0326,0.0327,0,-0.0457,-0.0471,-0.0495,-0.0476,-0.0472,-0.046,-0.0402,-0.0365,-0.0265,-0.0218,-0.0138,-0.0071,0.0023,0.0045,0.0191,0.0156,0.0224,0.0281,0.0286,0.0303,0.0315,0.0347,0.0383,0.0342,0.0341,0.034,0.0339,0,-0.0517,-0.0522,-0.0549,-0.0542,-0.0511,-0.0494,-0.0467,-0.0379,-0.0349,-0.0249,-0.0222,-0.0094,-0.0039,0.0071,0.0201,0.0194,0.0346,0.0355,0.0422,0.0423,0.0426,0.0424,0.0448,0.0448,0.0448,0.0447,0.0447,0,-0.0565,-0.0584,-0.0583,-0.0597,-0.0613,-0.0558,-0.0548,-0.049,-0.0415,-0.0381,-0.0259,-0.0211,-0.0033,0.008,0.0192,0.0337,0.0347,0.0428,0.0451,0.0414,0.041,0.0412,0.0407,0.0451,0.045,0.0449,0.0449,0,-0.0622,-0.0622,-0.0657,-0.0647,-0.0645,-0.0656,-0.0623,-0.0613,-0.0525,-0.048,-0.0453,-0.0294,-0.0144,0.003,0.0217,0.032,0.0459,0.0503,0.0443,0.0458,0.0505,0.0497,0.0591,0.0592,0.0593,0.0594,0.0594,0,-0.065,-0.0677,-0.0712,-0.0747,-0.0746,-0.0755,-0.0757,-0.068,-0.0661,-0.0532,-0.0517,-0.0358,-0.0237,0.0042,0.0249,0.0459,0.0468,0.0546,0.0534,0.0509,0.0522,0.0513,0.0505,0.0528,0.0528,0.0528,0.0528,0,-0.0702,-0.072,-0.0756,-0.0835,-0.0865,-0.0887,-0.0877,-0.0876,-0.0772,-0.0712,-0.0601,-0.0494,-0.0216,0.0023,0.0299,0.0412,0.0513,0.055,0.056,0.0488,0.0454,0.0465,0.0459,0.0528,0.0528,0.0528,0.0528,0.0528,-0.0737,-0.0787,-0.085,-0.0919,-0.0964,-0.0995,-0.0999,-0.097,-0.0926,-0.0798,-0.0685,-0.0497,-0.0242,0.0137,0.0338,0.0524,0.0519,0.0577,0.0576,0.0574,0.0542,0.0511,0.0589,0.0589,0.0589,0.059,0.059,0,-0.0779,-0.0844,-0.0929,-0.1006,-0.1065,-0.1062,-0.106,-0.1034,-0.0975,-0.0845,-0.0707,-0.0435,-0.015,0.0104,0.0399,0.0578,0.0569,0.0601,0.0565,0.0564,0.0563,0.0529,0.0573,0.0574,0.0574,0.0575,0,0,-0.0807,-0.0901,-0.0953,-0.1069,-0.1118,-0.1147,-0.1136,-0.1081,-0.0981,-0.0851,-0.0697,-0.0475,-0.0156,0.0057,0.0285,0.044,0.045,0.0444,0.0436,0.0365,0.0362,0.0526,0.0469,0,0,0,0,0]}],[{"header":{"parameterUnit":"m.s-1","parameterCategory":2,"la1":30.2991,"la2":30.254,"lo1":-89.0895,"lo2":-89.0444,"dy":0.0017,"dx":0.0017,"nx":28,"ny":28,"refTime":"2024-04-04T21:00:00:Z","depth":"4","parameterNumber":2,"parameterNumberName":"U-component_of_CURRENTS"},"data":[0,0,0,0,0,0,0,0,0,0,0,0,0,0,0,0,0,0,0,0,0,0,0,0,0,0,0,0,0,0,0,0,0,0,0,0,0,0,0,0,0,0,0,0,0,0,0,0,0,0,0,0,0,0,0,0,0,0,-0.0507,-0.0509,0,-0.0566,-0.0566,-0.0566,-0.0623,-0.0624,-0.0626,-0.0627,-0.0783,-0.0786,-0.0789,0,0,0,0,0,0,0,0,0,0,0,0,0,-0.0547,-0.0544,-0.0507,-0.0509,-0.051,-0.0566,-0.0566,-0.0566,-0.0623,-0.0624,-0.0626,-0.0628,-0.0783,-0.0786,-0.0789,0,0,0,0,0,0,0,0,0,0,0,0,0,-0.0552,-0.0543,-0.0507,-0.0551,-0.0556,-0.0566,-0.0566,-0.0566,-0.0622,-0.0624,-0.0627,-0.0629,-0.0781,-0.0785,-0.079,-0.077,0,0,-0.0802,-0.0804,0,0,0,0,0,0,0,0,-0.0551,-0.0549,-0.0543,-0.0548,-0.0554,-0.0597,-0.0638,-0.0642,-0.0622,-0.0588,-0.0627,-0.063,-0.0734,-0.0742,-0.0735,-0.0778,-0.0784,-0.0803,-0.0805,-0.0807,-0.0808,0,0,0,0,0,0,0,-0.055,-0.0548,-0.0522,-0.0545,-0.0552,-0.0604,-0.0605,-0.0638,-0.0643,-0.0591,-0.0598,-0.0617,-0.0737,-0.073,-0.0739,-0.0787,-0.0802,-0.0806,-0.0809,-0.081,-0.0994,-0.0996,0,0,0,0,0,0,-0.0551,-0.0546,-0.052,-0.0525,-0.0568,-0.0602,-0.0603,-0.0574,-0.0641,-0.0655,-0.0615,-0.062,-0.0722,-0.0734,-0.0745,-0.0878,-0.0807,-0.0811,-0.0813,-0.0992,-0.0994,-0.0997,0,0,0,0,0,0,-0.0551,-0.0546,-0.0518,-0.0547,-0.0548,-0.0599,-0.0566,-0.0574,-0.061,-0.0659,-0.0674,-0.0648,-0.0724,-0.074,-0.0837,-0.0879,-0.0813,-0.0816,-0.0989,-0.0992,-0.0996,-0.1047,0,0,0,0,0,0,-0.0551,-0.0544,-0.0527,-0.0545,-0.0547,-0.0549,-0.0565,-0.0574,-0.062,-0.0627,-0.0692,-0.0706,-0.0727,-0.0831,-0.0842,-0.0884,-0.082,-0.0986,-0.099,-0.0995,-0.1042,-0.1052,-0.106,0,0,0,0,0,-0.0551,-0.0525,-0.0524,-0.0523,-0.0517,-0.0551,-0.0556,-0.0596,-0.062,-0.0635,-0.0706,-0.0706,-0.0867,-0.0837,-0.0848,-0.0893,-0.0984,-0.0989,-0.0994,-0.1038,-0.105,-0.106,0,0,0,0,0,0,-0.057,-0.0529,-0.0529,-0.0501,-0.0536,-0.0565,-0.0588,-0.0612,-0.0671,-0.0697,-0.0739,-0.0758,-0.0857,-0.087,-0.0836,-0.096,-0.0924,-0.0931,-0.0953,-0.0965,-0.0973,-0.0958,-0.0823,0,0,0,0,0,-0.0554,-0.0497,-0.0516,-0.0501,-0.052,-0.0557,-0.0579,-0.0608,-0.0663,-0.0691,-0.0751,-0.0816,-0.0876,-0.092,-0.0969,-0.1036,-0.1056,-0.1072,-0.1081,-0.1088,-0.1086,-0.1124,-0.1135,-0.1015,-0.1015,-0.1014,0,0,-0.058,-0.0533,-0.0521,-0.0498,-0.0528,-0.0563,-0.0575,-0.0622,-0.0676,-0.07,-0.0807,-0.0852,-0.0903,-0.0987,-0.103,-0.1011,-0.115,-0.1095,-0.1101,-0.1094,-0.1131,-0.1142,-0.1152,-0.1018,-0.1018,-0.1017,0,0,-0.0614,-0.0547,-0.0543,-0.0529,-0.0558,-0.0585,-0.0609,-0.0666,-0.0719,-0.0822,-0.0851,-0.0926,-0.1034,-0.1064,-0.1095,-0.118,-0.1194,-0.1202,-0.1237,-0.1275,-0.1285,-0.1293,-0.1396,-0.1412,-0.1207,-0.1207,-0.1207,0,-0.0652,-0.0615,-0.0565,-0.0549,-0.0556,-0.0602,-0.0645,-0.0693,-0.0786,-0.0857,-0.0881,-0.1037,-0.107,-0.1154,-0.1181,-0.1199,-0.1242,-0.119,-0.1285,-0.1293,-0.13,-0.1403,-0.142,-0.121,-0.121,-0.1209,-0.1209,0,-0.0685,-0.0653,-0.0654,-0.0629,-0.0635,-0.0668,-0.072,-0.0788,-0.0876,-0.0951,-0.1088,-0.1131,-0.1221,-0.1239,-0.1241,-0.1308,-0.1333,-0.1288,-0.1249,-0.1315,-0.1421,-0.1438,-0.1215,-0.1213,-0.1212,-0.1212,0,0,-0.0756,-0.0698,-0.069,-0.0667,-0.0665,-0.0667,-0.0771,-0.0887,-0.099,-0.1087,-0.1214,-0.1292,-0.1322,-0.1354,-0.135,-0.1372,-0.1472,-0.1352,-0.1352,-0.1442,-0.1615,-0.141,-0.141,-0.1438,-0.144,-0.1441,-0.1689,0,-0.0817,-0.0795,-0.0756,-0.076,-0.0763,-0.0772,-0.0872,-0.0961,-0.1089,-0.1225,-0.1288,-0.1412,-0.1365,-0.1413,-0.1424,-0.1448,-0.1511,-0.1413,-0.1547,-0.1553,-0.1349,-0.1418,-0.1448,-0.1702,-0.1706,-0.1709,-0.1711,0,-0.0846,-0.0815,-0.085,-0.0803,-0.0816,-0.087,-0.0982,-0.107,-0.1263,-0.1358,-0.1465,-0.152,-0.1579,-0.1522,-0.161,-0.155,-0.1594,-0.1613,-0.1622,-0.1411,-0.1375,-0.1609,-0.1742,-0.174,-0.1738,-0.1735,-0.1734,0,-0.087,-0.084,-0.0869,-0.0837,-0.0859,-0.0931,-0.1004,-0.1176,-0.1254,-0.1464,-0.1556,-0.1638,-0.1665,-0.1725,-0.1688,-0.1697,-0.176,-0.1792,-0.1678,-0.167,-0.1759,-0.1746,-0.1884,-0.1884,-0.1883,-0.1883,-0.1882,0,-0.0879,-0.0867,-0.0902,-0.089,-0.0972,-0.0982,-0.1134,-0.1236,-0.139,-0.1471,-0.1633,-0.1659,-0.1701,-0.1709,-0.1746,-0.1708,-0.1813,-0.1698,-0.1699,-0.1787,-0.1774,-0.1776,-0.176,-0.1892,-0.189,-0.1888,-0.1886,0,-0.0874,-0.0896,-0.0889,-0.0946,-0.0986,-0.1052,-0.116,-0.1248,-0.1439,-0.1536,-0.159,-0.1674,-0.1715,-0.1741,-0.1792,-0.1736,-0.1765,-0.1729,-0.1839,-0.184,-0.1694,-0.1679,-0.1768,-0.1762,-0.1757,-0.1753,-0.175,0,-0.0875,-0.0889,-0.092,-0.0936,-0.0985,-0.1084,-0.1165,-0.1293,-0.1324,-0.1498,-0.1492,-0.1594,-0.1634,-0.1616,-0.1619,-0.1718,-0.167,-0.1712,-0.1704,-0.168,-0.1674,-0.1666,-0.1657,-0.1742,-0.1741,-0.174,-0.1738,0,-0.0866,-0.0894,-0.0892,-0.0936,-0.1002,-0.102,-0.1112,-0.113,-0.1241,-0.1377,-0.1413,-0.1484,-0.1501,-0.152,-0.1519,-0.1577,-0.1703,-0.1664,-0.1678,-0.1672,-0.165,-0.1647,-0.1644,-0.1722,-0.1724,-0.1726,-0.1727,0,-0.0868,-0.0863,-0.0874,-0.0895,-0.0937,-0.0945,-0.1012,-0.1029,-0.1089,-0.1251,-0.1208,-0.1384,-0.1425,-0.1443,-0.1444,-0.1457,-0.1527,-0.1526,-0.155,-0.1569,-0.1364,-0.1298,-0.1272,0,0,0,0,0,-0.0849,-0.0819,-0.0818,-0.0823,-0.0842,-0.0871,-0.0929,-0.0979,-0.1073,-0.1071,-0.1148,-0.1188,-0.127,-0.1318,-0.1314,-0.1377,-0.1513,-0.1362,-0.1518,-0.163,-0.1649,-0.1412,0,0,0,0,0,0,-0.0827,-0.0825,-0.079,-0.0739,-0.073,-0.0756,-0.0803,-0.0879,-0.0864,-0.0977,-0.1024,-0.1115,-0.1195,-0.1271,-0.1293,-0.1306,-0.1382,-0.1431,-0.1428,-0.1619,-0.1636,-0.1652,-0.1415,0,0,0,0,0]},{"header":{"parameterUnit":"m.s-1","parameterCategory":2,"la1":30.2991,"la2":30.254,"lo1":-89.0895,"lo2":-89.0444,"dy":0.0017,"dx":0.0017,"nx":28,"ny":28,"refTime":"2024-04-04T21:00:00:Z","depth":"4","parameterNumber":3,"parameterNumberName":"V-component_of_CURRENTS"},"data":[0,0,0,0,0,0,0,0,0,0,0,0,0,0,0,0,0,0,0,0,0,0,0,0,0,0,0,0,0,0,0,0,0,0,0,0,0,0,0,0,0,0,0,0,0,0,0,0,0,0,0,0,0,0,0,0,0,0,-0.0076,-0.0076,0,-0.0077,-0.0077,-0.0077,-0.0048,-0.0047,-0.0046,-0.0046,0.0044,0.0045,0.0047,0,0,0,0,0,0,0,0,0,0,0,0,0,-0.007,-0.007,-0.0076,-0.0076,-0.0076,-0.0077,-0.0077,-0.0077,-0.0048,-0.0047,-0.0046,-0.0045,0.0043,0.0045,0.0047,0,0,0,0,0,0,0,0,0,0,0,0,0,-0.0072,-0.007,-0.0076,-0.0061,-0.006,-0.0077,-0.0077,-0.0077,-0.0048,-0.0047,-0.0046,-0.0045,0.0042,0.0045,0.0047,0.0039,0,0,0.0055,0.0056,0,0,0,0,0,0,0,0,-0.0072,-0.0072,-0.0063,-0.0062,-0.0061,-0.0061,-0.0042,-0.0034,-0.0049,-0.0053,-0.0046,-0.0044,0.0016,0.0021,0.0017,0.0043,0.0047,0.0055,0.0056,0.0058,0.0058,0,0,0,0,0,0,0,-0.0071,-0.0072,-0.0076,-0.0064,-0.0062,-0.0063,-0.0061,-0.0041,-0.0023,-0.0052,-0.005,-0.0051,0.0018,0.0014,0.0019,0.0048,0.0055,0.0057,0.0059,0.006,0.018,0.0181,0,0,0,0,0,0,-0.0072,-0.0072,-0.0076,-0.0076,-0.0064,-0.0064,-0.0062,-0.0062,-0.0025,-0.0019,-0.0052,-0.005,0.0009,0.0016,0.0023,0.008,0.0058,0.006,0.0061,0.0178,0.018,0.0182,0,0,0,0,0,0,-0.0072,-0.0072,-0.0076,-0.0074,-0.0074,-0.0065,-0.0065,-0.0063,-0.0052,-0.0026,-0.0018,-0.0042,0.001,0.0019,0.0058,0.0082,0.0061,0.0063,0.0176,0.0179,0.0181,0.0155,0,0,0,0,0,0,-0.0071,-0.0072,-0.007,-0.0074,-0.0075,-0.0082,-0.0066,-0.0064,-0.0055,-0.0052,-0.0015,-0.0006,0.0012,0.0054,0.006,0.0085,0.0065,0.0174,0.0177,0.018,0.0154,0.0156,0.0158,0,0,0,0,0,-0.0071,-0.0076,-0.007,-0.0071,-0.0073,-0.0083,-0.0083,-0.0072,-0.0056,-0.0056,-0.0021,-0.0007,0.008,0.0056,0.0064,0.009,0.0172,0.0176,0.018,0.0152,0.0156,0.0158,0,0,0,0,0,0,-0.0079,-0.0073,-0.0067,-0.0071,-0.0074,-0.0077,-0.0079,-0.0068,-0.0045,-0.0032,-0.0001,0.0009,0.0059,0.0079,0.0053,0.0139,0.0135,0.014,0.0112,0.0115,0.0118,0.0084,0.0067,0,0,0,0,0,-0.0079,-0.0075,-0.0077,-0.0081,-0.0082,-0.0078,-0.0078,-0.007,-0.0053,-0.0042,-0.0012,0.0033,0.0076,0.0098,0.0135,0.0167,0.0183,0.0197,0.0199,0.0201,0.0182,0.0237,0.0242,0.0194,0.0194,0.0194,0,0,-0.0087,-0.0081,-0.0081,-0.0081,-0.0082,-0.0097,-0.0075,-0.0075,-0.0079,-0.0035,-0.0016,0.0038,0.0089,0.0132,0.0157,0.0152,0.0226,0.0206,0.0206,0.0186,0.0241,0.0246,0.0249,0.0197,0.0196,0.0196,0,0,-0.0105,-0.0092,-0.0099,-0.0101,-0.0099,-0.0102,-0.0099,-0.0092,-0.0077,-0.005,-0.0008,0.0057,0.011,0.0152,0.0181,0.022,0.0238,0.0245,0.0224,0.0278,0.0281,0.0284,0.0309,0.0315,0.0244,0.0244,0.0244,0,-0.0113,-0.0123,-0.0105,-0.0115,-0.0126,-0.0105,-0.0127,-0.0115,-0.0091,-0.0073,-0.0041,0.0074,0.012,0.0178,0.0194,0.0223,0.0242,0.0202,0.0277,0.0281,0.0285,0.0309,0.0315,0.0244,0.0244,0.0244,0.0244,0,-0.0144,-0.0149,-0.0155,-0.0163,-0.0171,-0.0183,-0.0173,-0.0165,-0.013,-0.01,-0.002,0.0059,0.0123,0.0168,0.0188,0.0246,0.0247,0.0273,0.0258,0.0287,0.0312,0.0319,0.0242,0.0243,0.0243,0.0243,0,0,-0.0174,-0.0177,-0.0181,-0.0194,-0.0196,-0.0212,-0.0216,-0.0211,-0.0207,-0.0124,-0.0094,0.002,0.0081,0.0118,0.0179,0.0232,0.0281,0.0252,0.0255,0.0254,0.0376,0.0319,0.0321,0.0316,0.0318,0.0319,0.0382,0,-0.0209,-0.0237,-0.0233,-0.0273,-0.0292,-0.0282,-0.0301,-0.0282,-0.0235,-0.0198,-0.0077,-0.0014,0.0057,0.01,0.0166,0.0255,0.0299,0.026,0.0367,0.0369,0.0298,0.0328,0.0323,0.0387,0.0388,0.039,0.039,0,-0.0248,-0.026,-0.0304,-0.0333,-0.0344,-0.0372,-0.0392,-0.0394,-0.0333,-0.0285,-0.0183,-0.0096,0.0011,0.0065,0.0227,0.0197,0.027,0.0343,0.0348,0.0301,0.0325,0.0358,0.0403,0.0402,0.0401,0.04,0.04,0,-0.0284,-0.0314,-0.0353,-0.0362,-0.0393,-0.0422,-0.044,-0.0416,-0.0415,-0.0331,-0.0295,-0.0154,-0.0081,0.0052,0.0184,0.0215,0.0334,0.0404,0.0422,0.0418,0.0459,0.0455,0.0497,0.0496,0.0496,0.0496,0.0496,0,-0.0321,-0.0353,-0.0377,-0.0399,-0.0464,-0.0465,-0.0511,-0.0504,-0.0477,-0.0452,-0.0336,-0.0275,-0.0083,0.0011,0.0148,0.0279,0.0309,0.0407,0.0432,0.0449,0.0443,0.0464,0.0459,0.0498,0.0498,0.0497,0.0497,0,-0.0355,-0.0367,-0.0414,-0.0458,-0.0482,-0.0526,-0.0576,-0.0593,-0.056,-0.0524,-0.0496,-0.037,-0.0218,-0.0071,0.0126,0.0217,0.0357,0.0381,0.0336,0.0359,0.0424,0.0418,0.0465,0.0464,0.0462,0.0461,0.046,0,-0.0376,-0.0401,-0.0461,-0.0503,-0.053,-0.0589,-0.0634,-0.0635,-0.0621,-0.0561,-0.0527,-0.0417,-0.0306,-0.0091,0.007,0.0281,0.0313,0.0354,0.0449,0.0402,0.0422,0.0418,0.0414,0.0459,0.0458,0.0458,0.0458,0,-0.0417,-0.0437,-0.0475,-0.0553,-0.0613,-0.0662,-0.0695,-0.0704,-0.0672,-0.0647,-0.0537,-0.0414,-0.0274,-0.0078,0.0019,0.0193,0.0326,0.0343,0.035,0.0441,0.0395,0.0415,0.0412,0.0453,0.0454,0.0454,0.0455,0,-0.0451,-0.0488,-0.0537,-0.0607,-0.0669,-0.0701,-0.0725,-0.0699,-0.0694,-0.0603,-0.057,-0.041,-0.0317,-0.0127,-0.0007,0.0114,0.0212,0.0274,0.0286,0.0293,0.0222,0.0136,0.0129,0,0,0,0,0,-0.0482,-0.0525,-0.0591,-0.0654,-0.0703,-0.0737,-0.0748,-0.0748,-0.0713,-0.0638,-0.06,-0.0455,-0.0252,-0.016,-0.0035,-0.0002,0.0219,0.0146,0.0292,0.043,0.0435,0.0375,0,0,0,0,0,0,-0.0506,-0.0568,-0.0596,-0.0665,-0.0713,-0.0761,-0.0771,-0.0752,-0.0683,-0.0632,-0.0516,-0.0442,-0.0239,-0.0328,-0.0041,-0.0003,0.0104,0.0248,0.025,0.0427,0.0431,0.0435,0.0375,0,0,0,0,0]}]]